Location: Clair
(33.8067°N, 117.9845°W)
Time: 17:35:40
(UTC+00:00)

Cosmos 1697 Rocket - Pass Details

Date: 14 February 2026
Orbit: 830 x 844 km, 71.0° (Epoch: 8 March)

Event Time Altitude Azimuth Distance (km) Brightness Sun altitude
Exits shadow 12:59:16 17° 332° (NNW) 2,015 4.4 -20.9°
Drops below altitude 10° 13:01:12 10° 350° (N) 2,461 5.0 -20.5°
Sets 13:04:17 0° 6° (N) 3,402 5.9 -19.9°
